This is the latest recevied weather packets stored in our database for station/object WC4PEM-11. If no packets are shown the sender has not sent any weather packets the latest 10 day(s).
| Time | Temp. | Humidity | Pressure | Rain* | Wind** | Luminosity | Snow |
|---|---|---|---|---|---|---|---|
| 1787863096 | 28.89° C | 76% | 1016 hPa | 0 mm | - | - | - |
| 1787862796 | 28.89° C | 75% | 1016.1 hPa | 0 mm | - | - | - |
| 1787862496 | 28.89° C | 74% | 1016.3 hPa | 0 mm | - | - | - |
| 1787862196 | 28.89° C | 73% | 1016.3 hPa | 0 mm | - | - | - |
| 1787862000 | 28.89° C | 72% | 1016.4 hPa | 0 mm | - | - | - |
| 1787861896 | 28.89° C | 72% | 1016.4 hPa | 0 mm | - | - | - |
| 1787861596 | 29.44° C | 71% | 1016.5 hPa | 0 mm | - | - | - |
| 1787861296 | 29.44° C | 71% | 1016.5 hPa | 0 mm | - | - | - |
| 1787860996 | 30° C | 70% | 1016.5 hPa | 0 mm | - | - | - |
| 1787860798 | 30° C | 72% | 1016.4 hPa | 0 mm | - | - | - |
| 1787860696 | 30° C | 72% | 1016.4 hPa | 0 mm | - | - | - |
| 1787860396 | 29.44° C | 72% | 1016.4 hPa | 0 mm | - | - | - |
| 1787860198 | 29.44° C | 73% | 1016.2 hPa | 0 mm | - | - | - |
| 1787860096 | 29.44° C | 73% | 1016.2 hPa | 0 mm | - | - | - |
| 1787859796 | 29.44° C | 73% | 1016.2 hPa | 0 mm | - | - | - |
| 1787859496 | 29.44° C | 73% | 1016 hPa | 0 mm | - | - | - |
| 1787859196 | 29.44° C | 73% | 1016 hPa | 0 mm | - | - | - |
| 1787858896 | 29.44° C | 73% | 1016 hPa | 0 mm | - | - | - |
| 1787858596 | 29.44° C | 72% | 1016.2 hPa | 0 mm | - | - | - |
| 1787858400 | 29.44° C | 72% | 1016.3 hPa | 0 mm | - | - | - |
| 1787858296 | 29.44° C | 72% | 1016.3 hPa | 0 mm | - | - | - |
| 1787857996 | 29.44° C | 73% | 1016.3 hPa | 0 mm | - | - | - |
| 1787857839 | 28.33° C | 79% | 1016.4 hPa | 0 mm | - | - | - |
| 1787857696 | 28.33° C | 79% | 1016.4 hPa | 0 mm | - | - | - |
| 1787857396 | 27.78° C | 80% | 1016.5 hPa | 0 mm | - | - | - |
* Rain latest hour (hover to see other rain measurements)
** Current wind speed in m/s (hover to see current wind gust speed)